Results 2013

Wapack Trail Race Application Directions Contact Info Records Wapack Scenery Results 2005 Results 2006 Results 2007 Results 2008 Results 2009 Results 2010 Results 2011 Results 2012 Results 2013 Results 2014 Results 2015 Results 2016 Results 2017 2005 Photos 2006 Photos 2008 Photos 2009 Photos 2010 Photos 2012 Photos Race Stories The "Other" Race

Sunday, September 1, 2013, 9:00 a.m.

 
Place Time Last First Age Gender Town St %
1 2:40:55 Nephew Ben 38 M Mansfield MA 100.00%
2 2:41:32 Herr Dave 48 M Canaan VT 99.62%
3 2:52:31 Tilton Kevin 31 M North Conway NH 93.28%
4 2:54:47 Traer Scott 32 M Woburn MA 92.07%
5 3:01:45 Trufanov Stanislav 34 M Millis MA 88.54%
6 3:07:54 Thompson Thomas (Ben) 22 M Somerville MA 85.64%
7 3:11:14 Smith Matthew 26 M Maynard MA 84.15%
8 3:12:10 Bonanno Tony 48 M Ellington CT 83.74%
9 3:16:37 Jackson William 31 M Salem MA 81.84%
10 3:17:18 Bennett Todd 43 M Columbia CT 81.56%
11 3:17:42 Esbitt Gregory 39 M Salem MA 81.39%
12 3:20:52 Cowles Ted 54 M West Granby CT 80.11%
13 3:20:55 Patnode Scott 32 M Brighton MA 80.09%
14 3:21:30 Higley Rob  59 M Amherst MA 79.86%
15 3:21:38 Allen Kelsey 30 F Colrain MA 79.81%
16 3:24:07 Bond Rob 24 M Boston MA 78.84%
17 3:24:20 James Ned 58 M Ashfield MA 78.75%
18 3:28:07 Radcliffe Sean 53 M Temple NH 77.32%
19 3:32:42 Jospe Alexandra 29 F Newton MA 75.65%
20 3:34:20 Brown Todd 49 M Rocky Hill CT 75.08%
21 3:37:10 Wade Michael 44 M Nashua NH 74.10%
22 3:38:37 Harrington Garry 53 M Swanzey NH 73.61%
23 3:41:19 Gennaro Thomas 27 M Boston MA 72.71%
24 3:44:00 Kimball Ben 41 M Amherst MA 71.84%
25 3:46:48 Merritt Jeremy 36 M Cornish NH 70.95%
26 3:48:20 Murray Lola 22 F Pittsfield MA 70.47%
27 3:48:21 Venne Katelynn 22 F Hatfield MA 70.47%
28 3:49:24 Gee Patrick 48 M Suffield CT 70.15%
29 3:51:58 Pandiscio Curt 52 M Granby CT 69.37%
30 3:53:58 Hornbaker Charles 31 M Charlottesville VA 68.78%
31 3:55:02 McInerney Jon 23 M New Ipswich NH 68.47%
32 3:56:05 Auger Michael 53 M Westminster MA 68.16%
33 3:57:36 Boudreau David 41 M Brookline NH 67.73%
34 3:57:40 LeBlanc Dane 55 M Littleton MA 67.71%
35 3:57:50 Vancellette Erin 38 F Medford MA 67.66%
36 4:04:12 Dunfey Bob 62 M Cape Elizabeth MA 65.90%
36 4:04:34 Whipple Tyler 31 M Springfield NH 65.80%
38 4:04:50 Jewett Gary 47 M Beverly MA 65.72%
39 4:05:53 Weakley Jason 32 M Granby MA 65.44%
40 4:08:05 Evans Matthew 40 M Lunenburg MA 64.86%
41 4:10:07 Bacon Jason 42 M Pawtucket RI 64.34%
42 4:10:47 Lane Jeff 37 M Medford MA 64.17%
43 4:11:40 Santorella Elizabeth 22 F Somerville MA 63.94%
44 4:14:04 Maher Mike 48 M South Easton MA 63.34%
45 4:14:37 Bertram Brady 33 M New Ipswich NH 63.20%
46 4:14:39 Siegel Eric 30 M Weymouth MA 63.19%
47 4:14:48 Parradee Randal 42 M Westford MA 63.15%
48 4:15:28 Blankman Paul 37 M Natick MA 62.99%
49 4:20:59 Child Curtis 30 M Milton MA 61.66%
50 4:24:19 Collopy Steve 56 M Holliston MA 60.88%
51 4:26:30 Augustine Nathan 39 M Topsham ME 60.38%
52 4:27:19 Williams Michael 42 M West Hartford CT 60.20%
53 4:27:27 Gillies Mark 57 M Stratham NH 60.17%
54 4:27:32 Boudreau Dana 39 M Hudson NH 60.15%
55 4:30:13 Pulick Christopher E 43 M Rowley MA 59.55%
56 4:30:14 Parker Thom 46 M Nashua NH 59.55%
57 4:31:39 Finestone Paula 45 F Billerica MA 59.24%
58 4:33:19 Christoffersen Amber 32 F Boston MA 58.88%
59 4:35:30 Walker Julie 42 F Boston MA 58.41%
60 4:35:35 Mullen Kevin 56 M Fairhaven MA 58.39%
61 4:36:12 Hebert Gary 48 M Norwich CT 58.26%
62 4:36:21 Vandermillen Michael 51 M Groton MA 58.23%
63 4:39:12 Schaff Robert 48 M Middletown CT 57.63%
64 4:40:22 Danecki Will 63 M New Milford CT 57.40%
65 4:40:57 Gellman Ken 47 M Andover MA 57.28%
66 4:41:09 Wagner Dan 56 M Sterling MA 57.24%
67 4:42:19 Worsham Bob 67 M Woodstock CT 57.00%
68 4:42:36 Fortin Paul 43 M Ipswich MA 56.94%
69 4:44:28 Walsh Charlotte 46 F Westwood MA 56.57%
70 4:46:32 McGrath Art 62 M Nelson NH 56.16%
71 4:49:45 Cheung Shelley 29 F Brighton MA 55.54%
72 4:51:16 Danecki Dan 54 M Tewksbury MA 55.25%
73 4:52:06 Markovich Philip 51 M Bradford CT 55.09%
74 4:52:15 Strum Kevin 57 M Peabody MA 55.06%
75 4:52:44 Caracciolo Guy 42 M Wrentham MA 54.97%
76 4:54:33 Morlock Jennifer 44 F Rindge NH 54.63%
77 4:56:24 Bailey Michael 35 M Brookline NH 54.29%
78 5:02:27 Corvi Suzanne 44 F Winchester MA 53.20%
79 5:02:28 Hempel Carlene 42 F Concord MA 53.20%
80 5:16:11 Tatro Philip 49 M Grafton MA 50.89%
81 5:20:46 DiComes Marc 33 M Bedford NH 50.17%
82 5:26:29 Mellor Richard 63 M Rindge NH 49.29%
83 5:27:59 Siedlik Valerie 30 F Somerville MA 49.06%
84 5:28:18 Iarrobino Gus 48 M Westwood MA 49.02%
85 5:30:30 Mulvey Cheryl 53 F Boxford MA 48.69%
86 5:30:30 Mulvey Edward 54 M Boxford MA 48.69%
87 5:32:34 Copelas Peter 53 M Salem MA 48.39%
88 5:47:06 Loring John 66 M Jamaica Plain MA 46.36%
89 5:50:50 Lombardo Carrie 42 F Middletown CT 45.87%
90 5:50:53 LaRose Lawrence 50 M Sag Harbor NY 45.86%
91 5:58:38 Bousquet Beau 42 M Brighton MA 44.87%
92 5:58:41 Goldberg Jerilyn 42 F Brighton MA 44.86%
93 6:08:04 McMonagle Sharon 28 F Enfield NH 43.72%
94 6:14:15 Raczkowski David 62 M Chaplin CT 43.00%
95 6:16:38 Sewell Rich 42 M Lunenburg MA 42.73%

Race Story

 

Unlike last year's low humidity and temperatures in the 60s, this year's 96 Wapack finishers experienced very high humidity and temperatures around 80 degrees.  Except for scarce cooling breezes along the ridges, this was not a day for course records and none fell.  It was fortunate that the sun did not stay out for long to compound the heat build-up that the runners experienced.  Runners came from all six New England States, New York, and Virginia.

 

Taking first place in a time of 2:40:55 was 38-year old Ben Nephew of Mansfield, MA.  Close behind was the course record holder, 48-year old Dave Herr of Canaan, VT.  When they finished the race, they each thought they were one position further down in the results because they were behind another runner at the turnaround.  However, the front-runner’s inexperience got him lost somewhere on the way back.  The trail that is well-marked at hiking speeds can be easily missed at racing speeds!  It is hoped he comes back in a future year to run the race with more success.

 

On the women's side, last year’s winner Kelsey Allen, 30, of Colrain, MA, once again comfortably led the field, finishing in 3:21:38.  Second woman over the finish line was Alexandra Jospe, 29, of Newton, MA, in a time of 3:32:42.

 

The Wapack Trail Race in 2014 will be held, as usual, on the Sunday of Labor Day weekend.